#timestamp,LO_Frequency,Hit,StdDev 
1559707215.6,286046998.6,N
1559707235.4,286046998.8,N
1559707255.3,286047000.2,N
1559707275.1,286047002.7,N
1559707295.9,286046998.5,N
1559707315.7,286047001.1,N
1559707335.5,286047001.9,N
1559707355.4,286047001.7,N
1559707375.2,286047002.2,N
1559707395.0,286047002.0,N
1559707395.9,286047002.0,N
1559707415.8,286047001.6,N
1559707435.6,286047003.2,N
1559707455.4,286047005.4,N
1559707475.3,286047003.3,N
1559707495.1,286047001.8,N
1559707515.9,286047001.2,N
1559707535.7,286046998.0,N
1559707555.5,286046991.9,Y
1559707575.4,286046987.9,P
1559707595.2,286046987.9,N
1559707645.1,286046984.4,E
1559707655.0,286046992.9,N
1559707655.9,286046992.9,P
1559707675.7,286047001.1,P
1559707695.6,286046996.5,N
1559707715.4,286046997.5,N
1559707735.3,286046996.4,N
1559707755.1,286046991.8,N
1559707756.0,286046991.8,N
1559707775.8,286046991.4,N
1559707795.7,286046991.5,N
1559707815.5,286046989.8,Y
1559707835.3,286046993.3,P
1559707855.2,286046994.1,P
1559707875.0,286046992.6,P
1559707875.9,286046992.6,Y
1559707895.8,286046998.9,P
1559707915.6,286046999.9,N
1559707935.4,286046999.1,N
1559707955.3,286047000.9,N
1559707975.1,286047000.9,N
1559707995.8,286046999.9,N
1559708015.7,286046998.5,N
1559708035.5,286046998.2,N
1559708055.4,286046998.7,N
1559708075.2,286046998.1,N
1559708095.0,286046999.9,N
1559708095.9,286046999.9,N
1559708115.8,286047001.6,N
1559708135.6,286047004.2,N
1559708155.4,286047005.4,N
1559708175.3,286047004.8,N
1559708195.1,286047007.6,N
1559708215.9,286047006.1,N
1559708235.7,286047006.9,N
1559708255.5,286047007.4,N
1559708275.4,286047007.0,N
1559708295.2,286047008.8,N
1559708315.0,286047009.2,N
1559708315.9,286047009.2,N
1559708335.8,286047008.0,N
1559708355.6,286047011.4,N
1559708375.4,286047013.5,N
1559708395.3,286047013.1,N
1559708415.1,286047013.3,N
1559708465.9,286047012.9,E
1559708475.8,286047008.6,N
1559708495.7,286047002.7,P
1559708515.5,286047002.1,N
1559708535.3,286047003.6,N
1559708555.2,286047004.4,N
1559708575.0,286047004.2,N
1559708575.9,286047004.2,N
1559708595.7,286047004.0,N
1559708615.6,286047001.4,N
1559708635.4,286047001.3,N
1559708655.3,286047003.4,N
1559708675.1,286047003.5,N
1559708676.0,286047003.5,N
1559708695.8,286047005.6,Y
1559708745.7,286047003.6,E
1559708755.6,286047001.8,N
1559708775.5,286046998.1,P
1559708795.3,286046999.2,N
1559708815.1,286046997.8,N
1559708835.9,286046996.2,N
1559708855.7,286046994.3,Y
1559708875.6,286046991.8,P
1559708895.4,286046994.4,N
1559708915.2,286046993.6,N
1559708935.1,286046997.4,N
1559708936.0,286046997.4,N
1559708955.8,286046994.9,N
1559708975.6,286046995.8,N
1559708995.5,286046996.4,N
1559709015.3,286046996.0,N
1559709035.2,286046996.3,N
1559709055.9,286046994.3,Y
1559709075.7,286046999.5,P
1559709095.6,286046999.4,N
1559709115.4,286046999.6,N
1559709135.3,286046997.8,N
1559709155.1,286046994.9,Y
1559709156.0,286046994.9,P
1559709175.8,286046999.5,N
1559709195.7,286046998.3,N
1559709215.5,286047001.0,N
1559709235.3,286047000.6,N
1559709255.2,286047000.5,N
1559709275.0,286047000.9,N
1559709275.9,286047000.9,N
1559709295.8,286046998.2,N
1559709315.6,286047000.2,N
1559709335.4,286047001.6,N
1559709355.3,286047004.4,N
1559709375.1,286047003.6,N
1559709395.9,286047003.1,N
1559709415.7,286047004.1,N
1559709435.5,286047004.1,N
1559709455.4,286047001.7,N
1559709475.2,286047002.6,N
1559709495.0,286047000.2,N
1559709495.9,286047000.2,N
1559709515.8,286047001.8,N
1559709535.6,286047001.9,N
1559709555.4,286047003.6,N
1559709575.3,286047003.8,N
1559709595.1,286047005.3,N
1559709615.9,286047002.9,N
1559709635.7,286047005.6,N
1559709655.5,286047004.5,N
1559709675.4,286047006.8,N
1559709695.2,286047007.6,N
1559709715.0,286047007.2,N
1559709716.0,286047007.2,N
1559709735.8,286047007.6,Y
1559709755.6,286047005.3,P
1559709775.5,286047003.8,P
1559709795.3,286047003.4,P
1559709815.1,286047004.3,Y
1559709835.9,286047000.3,P
1559709855.7,286047000.4,N
1559709875.6,286047001.5,N
1559709895.4,286047001.5,N
1559709915.2,286047002.2,N
1559709935.1,286046999.8,N
1559709936.0,286046999.8,N
1559709955.8,286047000.2,N
1559709975.6,286047000.1,N
1559709995.5,286047000.4,N
1559710015.3,286047000.0,N
1559710035.2,286046999.8,N
1559710055.9,286047001.6,N
1559710075.7,286047000.2,N
1559710095.6,286046998.3,N
1559710115.4,286047002.8,N
1559710135.2,286047000.1,N
1559710155.1,286047002.8,N
1559710156.0,286047002.8,N
1559710175.8,286046999.7,N
1559710195.7,286047000.2,N
1559710215.5,286047000.9,N
1559710235.3,286046998.6,N
1559710255.2,286046996.5,N
1559710275.0,286046996.5,N
1559710275.9,286046996.5,N
1559710295.7,286046998.2,N
1559710315.6,286047002.8,N
1559710335.4,286047000.1,N
1559710355.3,286047002.4,N
1559710375.1,286047002.4,N
1559710376.0,286047002.4,N
1559710395.8,286047002.4,N
1559710415.7,286047000.1,N
1559710435.5,286047000.0,N
1559710455.3,286047000.6,N
1559710475.2,286046998.6,N
1559710495.0,286047000.9,N
1559710495.9,286047000.9,N
1559710515.8,286047000.8,N
1559710535.6,286047000.3,N
1559710555.4,286047001.1,N
1559710575.3,286046999.2,N
1559710595.1,286046998.3,N
1559710615.8,286046999.3,N
1559710635.7,286046999.0,N
1559710655.5,286046998.5,N
1559710675.4,286046999.6,N
1559710695.2,286047001.0,N
1559710715.0,286046999.3,N
1559710715.9,286046999.3,N
1559710735.8,286046997.0,N
1559710755.6,286046999.6,N
1559710775.4,286046997.4,N
1559710795.3,286046999.5,N
